Lid_Strength_Index
1 2 2 2 1 1 1 1 1 1 2 2 2 2 2 2 2 2 3 2 4 7 6 6 6 6 6 5 8 5 6 6 7 10 10 10 11 11 12 12 13 14 14 15 14 16 18 7 7 12 8 6 7 8
2 2 2 1 1 1 1 1 1 1 2 2 2 2 2 2 1 2 4 2 2 6 6 4 3 3 4 4 5 4 6 7 5 9 8 9 11 10 12 15 9 14 12 13 12 12 8 6 7 5 5 7 7 7
2 1 2 1 1 1 1 1 1 1 1 2 2 2 1 2 1 2 3 3 5 7 6 6 5 2 2 2 1 6 4 5 5 3 7 8 11 9 13 12 11 10 8 12 11 9 9 8 8 7 6 8 8 8
2 1 1 2 2 2 2 1 2 2 2 2 1 1 1 2 1 2 3 3 4 6 9 7 3 4 2 1 2 2 3 3 3 4 7 9 11 8 11 11 11 9 9 11 11 10 9 8 9 10 9 8 9 8
2 2 1 1 1 1 1 1 2 2 2 1 2 1 1 1 1 1 2 3 3 5 9 8 4 3 2 2 3 3 3 4 5 7 8 9 8 8 8 9 10 8 11 12 12 10 10 10 10 9 9 9 9 8
3 2 1 1 1 1 1 1 1 2 2 1 1 1 1 1 2 3 7 3 2 3 7 10 4 4 3 3 4 4 4 4 5 7 8 7 6 8 11 11 9 9 8 10 11 9 8 9 7 9 8 9 9 9
2 2 2 2 1 1 1 1 2 1 1 1 1 1 1 2 1 5 5 4 3 2 7 10 8 4 4 3 3 4 4 5 6 7 8 8 8 7 9 12 10 9 9 10 9 10 10 10 11 9 9 9 9 9
2 2 2 2 2 2 2 2 1 1 1 2 2 2 2 2 2 4 2 2 2 5 6 11 9 7 3 5 6 3 6 7 6 6 6 8 7 8 11 9 9 10 9 10 10 10 10 10 10 10 9 9 9 10
2 1 1 1 2 2 2 2 2 2 2 2 2 2 2 3 6 4 2 2 2 5 9 10 10 10 3 4 5 6 5 9 5 8 8 7 8 11 11 10 11 11 12 12 11 11 11 11 11 11 11 11 11 11
1 0 1 1 1 1 2 2 2 2 2 2 3 6 8 6 2 2 4 7 7 6 6 9 7 9 5 5 7 8 7 9 11 8 6 9 10 10 10 11 11 11 12 12 13 13 13 12 13 13 12 12 12 13
-0 -0 0 1 1 1 1 1 1 1 1 4 7 7 3 2 4 6 9 10 8 10 7 7 7 8 5 8 8 6 9 8 12 10 10 11 11 12 11 11 11 11 12 12 12 12 12 12 13 13 12 12 12 12
-0 -0 -0 0 1 1 1 1 1 2 3 3 3 2 3 6 7 10 10 8 10 10 7 9 8 7 6 4 7 7 10 9 13 7 11 12 13 12 11 12 12 12 13 13 13 13 13 13 13 13 13 13 13 13
-1 -0 -0 0 1 1 1 1 1 0 1 2 5 7 8 7 11 12 14 12 10 8 7 7 9 7 6 6 8 9 11 11 7 11 11 13 12 12 12 12 12 12 13 13 13 13 13 13 14 15 15 15 14 14
-1 -1 -0 -0 0 0 1 1 -0 0 3 6 8 10 10 11 10 9 9 9 6 6 6 6 7 7 7 9 8 11 9 9 12 13 14 12 13 12 12 12 12 13 14 16 15 15 15 16 16 16 17 16 15 16
-0 -0 -0 -0 -0 -0 -0 -0 0 1 4 7 7 10 10 7 7 7 6 6 6 5 5 7 7 7 9 10 9 10 12 13 12 12 13 12 12 12 12 12 13 13 14 15 15 17 17 18 17 17 17 17 16 17
-0 -0 0 -0 -0 -0 -0 0 2 3 5 7 8 9 8 8 8 8 7 8 6 5 4 5 9 10 10 10 12 12 13 13 13 13 12 11 13 13 13 13 13 14 15 15 15 16 16 18 18 17 17 17 17 17
1 2 -0 -0 -0 0 1 3 4 6 7 10 10 10 10 8 8 9 8 8 7 6 9 8 11 11 9 11 12 11 12 13 13 12 11 12 12 13 13 13 14 14 14 15 15 16 16 17 18 17 18 17 17 17
2 0 0 0 1 2 4 5 6 8 12 10 11 12 12 12 11 11 10 9 9 8 6 9 8 10 11 12 12 14 13 13 12 12 12 12 12 13 12 13 13 14 14 15 16 17 17 18 17 17 18 18 18 18
2 1 1 1 2 4 7 7 7 12 11 11 12 12 12 13 12 12 11 10 11 10 10 10 12 12 13 14 14 14 13 13 13 12 12 13 13 14 14 13 14 14 15 15 15 15 16 18 18 17 17 17 18 17
2 1 1 2 2 6 9 9 7 10 12 12 11 13 13 13 12 12 12 12 12 12 15 15 15 15 15 15 14 14 13 13 12 13 13 12 12 13 14 13 13 14 14 15 15 18 17 17 17 18 18 18 18 18
3 3 2 3 6 7 8 10 11 10 11 12 12 12 13 12 13 14 14 13 14 16 16 15 15 15 15 14 13 13 13 13 13 13 14 14 14 13 14 14 14 14 15 16 16 17 18 18 18 18 18 18 18 18
5 4 5 5 8 8 10 8 10 10 11 12 12 12 13 14 14 15 14 16 17 17 15 15 15 15 15 16 15 14 14 14 15 14 15 15 14 15 16 16 15 16 16 17 17 17 18 18 18 18 18 19 18 18
4 5 6 7 10 10 12 8 11 11 13 14 13 15 15 15 15 14 18 17 17 15 15 15 15 15 15 16 15 15 15 15 14 15 15 15 15 16 16 16 16 17 17 17 17 17 18 19 18 18 18 18 18 19
7 10 11 11 10 12 9 12 10 12 12 14 15 18 17 16 15 17 19 18 17 15 15 16 15 15 16 16 16 16 15 15 16 16 15 15 16 16 15 16 16 16 16 16 16 17 17 17 18 17 18 18 18 18
10 15 13 15 12 13 14 14 14 14 16 16 17 18 17 15 18 20 22 19 17 17 16 15 15 15 16 17 17 17 16 15 16 17 16 15 15 15 15 15 15 15 15 15 16 16 17 16 16 17 17 17 18 18
17 17 16 16 15 14 15 17 16 16 16 17 18 16 15 18 21 22 20 18 17 17 17 17 17 18 18 17 17 17 16 15 15 17 17 16 16 15 16 16 16 15 14 14 14 15 16 16 16 18 17 18 18 18
19 19 16 15 15 15 16 16 15 16 18 19 18 19 19 22 23 21 18 17 17 17 16 16 16 16 17 17 17 16 15 15 15 16 15 15 15 15 15 16 17 16 14 14 13 14 14 15 16 16 16 15 16 16
18 18 20 20 20 18 20 20 20 21 19 19 19 22 22 22 22 19 18 17 17 17 17 18 17 16 16 17 16 15 15 15 15 15 15 15 15 16 16 15 15 15 14 14 13 13 13 14 14 15 16 16 16 15
20 19 19 24 23 23 23 23 22 21 20 19 21 23 23 21 20 19 18 17 16 16 18 18 19 17 18 18 18 18 18 16 16 20 21 17 16 16 16 16 15 14 13 13 13 13 14 13 14 14 15 14 14 14
22 19 23 25 26 25 24 23 22 22 21 20 20 21 21 21 20 19 17 17 17 18 18 18 18 17 18 17 19 19 19 19 19 17 17 18 18 18 17 17 15 14 13 12 12 12 13 12 13 13 13 14 13 14
20 21 23 23 24 22 22 23 22 21 21 21 20 21 22 21 20 20 20 20 20 20 19 19 20 19 19 19 18 18 19 20 22 21 20 19 18 17 17 17 15 15 13 13 13 13 13 13 13 14 14 15 16 15
21 22 23 24 24 21 21 20 20 21 20 19 21 21 22 20 21 20 20 19 19 19 23 20 20 21 21 21 22 21 24 20 20 21 21 19 18 18 17 17 16 15 14 14 13 14 14 15 14 15 15 17 17 17
22 22 21 21 22 22 21 20 21 21 21 21 21 21 21 20 21 19 21 20 18 17 19 19 19 20 21 21 21 21 22 20 23 22 22 22 24 22 18 16 15 15 16 15 15 15 16 17 16 17 17 18 18 18